Theta_e
310 310 309 309 310 310 310 309 302 300 300 300 301 301 302 300 305 302 306 307 308 306 307 308 308 309 308 309 314 317 321 320 320 319 319 309 310 310 309 311 309 312 317 308 306
309 310 308 308 307 307 308 303 298 298 299 299 300 301 302 302 305 304 304 302 305 306 306 307 308 308 306 312 312 315 313 315 312 310 310 306 305 304 304 302 304 304 305 305 306
307 306 306 303 304 304 303 298 298 298 299 300 300 301 301 305 308 303 302 303 306 307 307 307 308 309 309 311 312 311 314 310 307 307 305 305 304 302 302 302 302 302 302 302 304
304 305 304 302 302 303 300 298 298 298 300 300 301 300 300 303 306 302 302 303 306 307 308 306 306 308 308 309 307 306 307 305 305 306 304 303 301 300 301 301 302 301 301 303 303
303 305 304 302 302 303 300 298 299 299 300 300 301 301 302 301 302 302 302 302 306 306 307 307 307 307 305 304 305 305 305 305 305 305 304 302 302 301 301 301 300 301 304 303 302
304 304 303 302 302 302 300 298 299 299 300 300 300 300 304 300 302 302 303 303 304 307 306 307 306 306 306 305 304 305 305 303 304 303 303 303 301 302 300 300 301 302 302 301 301
307 306 303 302 302 302 300 298 299 299 300 300 300 301 301 301 302 302 303 304 304 305 306 306 306 306 306 305 304 304 303 302 303 303 303 301 301 301 300 301 301 301 300 300 301
305 307 304 303 302 302 300 298 299 300 300 299 300 302 301 301 302 302 302 305 303 303 304 304 305 306 305 304 305 305 303 300 303 303 303 301 300 301 300 301 301 301 300 300 303
305 305 305 302 302 302 299 299 298 299 301 300 303 301 302 302 302 302 302 303 304 304 304 303 304 305 302 302 303 299 298 301 302 302 303 302 301 301 300 301 300 300 300 302 305
306 304 305 302 302 300 299 302 299 302 303 301 300 303 301 302 302 302 302 304 304 303 305 305 303 300 298 297 298 299 301 302 302 301 300 299 299 300 300 300 300 299 302 306 307
309 305 304 301 302 299 303 306 305 306 301 302 302 303 302 301 302 302 302 303 304 303 302 302 299 300 302 301 302 302 302 301 299 300 301 300 300 301 302 301 301 301 304 304 305
311 306 304 301 301 300 305 305 304 305 306 301 301 301 301 301 302 301 302 304 303 301 303 302 300 301 302 302 302 300 299 298 299 300 303 302 303 303 303 304 303 305 305 305 307
311 308 304 301 300 299 302 304 303 304 306 301 300 301 301 302 301 300 301 302 301 301 300 304 302 300 300 301 299 298 299 299 299 301 303 302 302 304 304 305 305 303 303 303 304
312 309 305 301 304 301 303 300 302 304 306 306 301 302 302 302 303 301 300 302 301 301 301 301 300 299 300 300 298 297 299 299 300 303 302 303 303 304 305 303 303 303 302 302 302
311 310 306 302 300 304 300 300 301 304 308 303 301 300 301 302 300 302 301 302 299 300 300 301 299 299 301 300 299 297 298 298 300 303 303 305 300 304 304 305 303 303 302 301 300
312 311 306 305 303 299 300 301 304 308 307 301 300 303 302 301 301 301 302 300 299 300 299 298 297 300 300 299 298 299 301 304 304 303 296 304 304 303 303 305 304 303 301 299 298
312 311 307 301 304 299 300 305 310 308 302 303 301 302 301 301 301 301 301 298 299 301 301 298 298 298 298 297 299 301 296 289 293 297 298 304 303 303 302 303 304 302 300 297 297
313 311 306 302 298 299 303 304 307 307 308 299 300 301 302 300 300 300 301 301 298 298 296 295 295 299 297 296 297 303 297 289 287 294 298 300 300 302 303 302 301 300 298 298 299
311 305 300 298 298 299 303 306 309 310 305 301 299 299 299 300 300 300 302 300 299 297 298 297 298 296 297 296 299 300 296 299 289 290 296 300 302 303 303 302 301 299 298 298 298
309 301 300 300 298 300 302 308 306 302 301 302 302 299 298 297 300 300 300 301 300 299 297 296 293 295 296 297 300 300 300 297 289 288 288 296 301 302 302 302 301 297 298 298 297
305 304 299 299 300 301 306 305 304 298 300 301 303 299 302 297 299 298 300 301 300 298 297 296 294 296 295 295 300 295 295 292 294 295 291 293 297 298 301 301 297 296 298 297 296
303 306 297 297 302 300 302 302 299 299 300 300 298 302 301 299 297 301 300 300 299 297 296 297 297 296 297 295 295 297 300 294 288 290 297 294 298 299 298 298 296 296 298 296 295
303 297 297 298 304 301 300 298 299 300 300 300 299 299 299 301 299 299 298 298 298 298 296 296 292 290 295 296 297 296 296 299 287 286 293 288 294 299 296 297 294 296 298 296 294
299 300 296 297 297 303 302 301 300 301 302 302 299 298 298 298 297 296 299 297 298 298 298 297 294 291 296 297 295 298 297 299 291 286 286 293 291 296 296 293 293 293 298 294 293
302 303 297 298 298 302 304 305 303 303 300 300 301 299 299 298 297 293 297 297 298 299 296 296 290 291 292 295 294 294 294 296 296 290 291 291 292 294 294 292 292 290 292 294 293
305 300 297 295 298 302 304 305 304 302 301 302 302 300 300 299 299 299 295 296 297 297 296 296 292 295 291 294 295 296 295 295 295 294 294 296 296 296 296 295 289 290 290 293 292
304 300 303 302 301 303 306 304 304 302 300 302 301 301 300 300 297 297 296 296 296 296 295 295 292 286 290 293 294 292 293 294 291 290 292 290 293 290 289 290 291 286 292 292 290
Wind_Speed
15 17 18 17 16 16 16 16 16 14 12 11 13 13 9 3 8 23 10 12 12 13 12 12 3 5 2 2 3 3 3 2 3 2 1 5 5 3 4 2 2 4 4 4 7
15 16 18 17 16 15 15 16 16 14 13 12 13 12 8 3 4 12 17 14 11 13 11 11 2 2 2 2 2 3 3 1 4 1 3 4 4 7 5 7 4 6 2 4 9
16 17 18 18 16 15 15 16 17 14 12 11 12 11 6 3 2 4 20 13 12 15 4 5 6 2 3 3 2 3 2 1 2 3 2 3 5 6 6 5 5 6 7 9 7
15 17 18 18 16 15 15 17 16 13 11 9 10 9 6 1 2 9 16 13 12 12 4 1 3 2 4 3 1 2 2 3 4 3 5 5 6 7 6 7 8 9 8 3 6
15 16 19 19 18 15 16 18 15 11 9 9 9 9 3 5 2 12 12 13 9 12 18 3 6 3 4 4 1 1 2 5 4 3 4 5 5 6 13 15 10 8 3 5 7
16 16 19 20 19 17 16 17 14 11 7 7 8 10 1 4 3 14 11 11 13 13 12 8 2 2 3 3 2 2 4 6 5 2 2 3 5 1 7 5 9 6 8 8 9
16 17 19 20 19 18 18 17 12 7 6 6 6 5 4 4 2 12 9 7 10 9 3 6 6 3 1 2 2 2 5 5 4 2 2 2 8 6 5 6 9 14 10 9 6
16 17 19 20 20 19 19 17 9 5 6 6 4 2 2 1 1 13 14 2 5 4 2 3 5 2 3 2 0 2 3 4 2 2 2 6 10 15 7 7 10 12 11 8 3
16 17 19 20 20 20 20 16 8 8 7 3 2 2 1 1 3 11 12 4 9 4 3 5 2 2 6 3 4 7 2 3 9 11 5 3 13 13 11 11 13 11 12 6 3
15 16 18 20 20 21 19 10 3 3 3 1 2 3 3 3 5 10 7 6 2 5 4 2 4 4 5 5 1 3 3 4 5 5 5 8 19 16 15 8 10 10 7 4 3
15 16 18 19 19 18 18 3 4 3 8 2 0 1 1 8 1 7 8 4 1 2 3 3 6 2 1 2 1 2 3 5 5 1 9 3 17 18 20 6 9 8 2 4 6
15 16 17 18 19 13 7 4 2 1 2 1 1 2 0 3 2 7 10 2 1 2 2 5 3 2 3 4 3 3 4 5 7 6 6 8 17 14 13 4 5 5 1 4 3
14 15 16 16 13 7 7 4 1 1 1 0 0 2 2 4 1 5 4 1 4 4 5 4 3 2 2 2 4 3 2 3 6 8 5 8 7 6 5 2 4 7 4 8 8
13 13 14 15 2 7 2 5 2 1 4 2 1 1 1 2 2 2 3 2 3 3 3 4 2 0 1 1 2 4 2 3 8 5 2 5 4 5 4 5 5 4 6 4 7
13 10 11 9 7 2 5 5 3 1 4 1 1 1 1 3 2 1 2 2 4 4 4 2 3 1 1 1 1 8 7 7 4 2 3 3 3 7 6 3 4 2 6 7 6
13 7 8 5 4 4 5 4 2 5 5 1 1 0 1 2 2 2 2 4 1 3 2 2 1 1 2 2 3 8 7 2 1 2 3 5 4 6 4 3 3 3 7 7 8
13 9 4 6 3 5 5 2 4 3 3 3 2 1 1 2 2 3 2 4 1 4 2 1 1 1 1 2 2 6 5 4 6 4 5 2 1 10 8 4 3 3 8 7 8
18 13 8 5 4 5 3 4 3 3 4 1 1 1 3 2 1 0 1 1 3 2 3 3 4 3 1 2 2 3 5 4 4 2 5 6 6 6 5 7 3 4 7 11 14
21 11 7 5 3 3 4 2 7 4 1 5 3 4 4 1 1 0 1 4 2 2 5 3 2 2 4 1 4 3 3 4 4 1 2 4 7 9 5 4 6 11 9 13 14
17 9 4 10 9 5 4 4 3 2 3 2 4 3 4 3 3 3 4 2 4 1 1 4 3 1 2 2 4 3 2 2 3 2 5 6 6 6 7 6 7 11 11 13 17
9 3 6 11 13 4 3 6 3 1 0 4 3 2 3 5 5 3 4 2 3 3 1 3 3 0 3 5 7 2 2 2 3 4 4 3 7 7 3 2 4 11 12 13 18
6 3 6 18 2 1 4 5 4 4 0 2 1 4 6 5 3 3 5 2 6 5 5 2 4 2 7 1 4 4 6 5 4 5 4 3 8 7 5 6 6 14 14 14 17
3 3 2 3 4 4 1 2 2 5 5 4 4 2 2 5 1 3 3 3 6 3 5 6 1 3 6 4 3 4 5 4 4 3 5 5 7 2 8 13 15 13 13 17 18
3 4 1 2 0 5 5 3 5 6 2 4 3 3 3 1 2 4 3 2 3 2 4 3 3 6 6 4 3 4 6 7 6 4 3 9 11 22 18 11 14 10 12 13 17
4 5 6 5 5 4 9 10 8 6 1 4 2 5 5 3 2 4 3 2 1 6 2 3 4 3 5 12 6 11 11 9 13 10 7 6 9 17 18 12 10 5 8 16 17
5 4 1 3 11 13 10 10 10 5 8 5 5 9 7 6 7 7 6 5 5 5 6 2 2 2 6 4 5 8 13 16 18 15 15 22 27 25 19 2 4 5 8 14 15
10 4 3 10 7 10 9 9 13 12 7 6 13 6 9 10 4 0 2 3 7 7 6 6 4 3 6 6 7 7 7 14 5 6 11 7 14 2 5 4 4 5 8 10 12
Wind_Direction
355 352 350 350 353 351 350 349 353 350 349 353 354 359 357 10 49 29 36 333 327 343 350 340 222 203 224 248 6 22 66 216 264 28 165 11 10 334 286 228 330 276 0 148 26
351 350 349 347 349 349 346 347 350 344 339 340 349 350 358 10 57 51 355 352 8 360 358 359 55 159 11 101 351 86 132 220 17 76 319 322 352 324 336 332 297 302 319 34 42
344 348 349 347 347 346 346 347 345 339 338 338 347 343 356 1 67 4 346 1 15 3 327 314 312 251 96 87 41 350 194 15 79 117 45 299 321 329 318 292 239 299 300 333 1
343 345 348 348 345 344 345 344 343 340 339 343 349 341 331 335 88 346 347 3 20 15 100 251 311 360 119 99 63 60 53 66 330 31 353 328 311 324 244 247 271 282 281 297 329
344 343 344 346 343 342 343 343 341 342 343 340 348 349 347 53 12 339 345 8 45 38 36 29 45 1 93 113 353 179 337 337 320 328 246 294 290 269 275 278 272 248 220 274 270
341 339 339 341 341 338 339 343 339 334 337 333 338 337 336 70 4 347 3 16 32 34 33 37 30 268 74 69 97 281 288 270 251 249 273 1 287 80 274 300 298 298 264 250 255
335 339 336 338 339 336 336 341 335 337 352 345 340 2 59 151 31 357 3 18 18 28 17 10 356 85 147 114 325 283 337 323 258 272 249 106 295 209 286 345 337 322 307 290 260
331 336 334 336 337 335 333 334 318 348 333 352 339 47 137 180 345 10 10 118 13 6 23 339 356 8 86 138 169 344 81 13 351 280 228 85 271 274 285 320 304 296 291 261 240
329 331 332 335 337 335 331 327 305 301 322 333 14 47 30 40 2 355 1 10 333 315 326 310 321 69 17 41 26 11 274 331 334 331 312 51 286 276 310 297 287 292 288 258 169
326 328 331 335 338 337 335 326 321 2 11 356 300 48 31 322 323 338 7 5 319 330 355 18 39 64 19 47 221 300 330 302 272 323 344 284 276 296 298 273 278 281 239 135 223
324 326 332 336 339 343 343 7 17 6 41 88 122 273 29 319 315 358 349 331 227 9 64 12 65 69 185 73 129 232 253 275 260 254 343 253 287 293 298 271 255 275 230 277 270
319 325 325 335 341 352 359 53 89 267 321 326 257 131 169 356 323 349 355 83 27 79 16 28 101 182 273 258 247 300 298 307 300 356 305 294 294 294 291 241 189 166 340 264 254
307 316 325 335 341 6 41 55 60 12 191 71 302 36 303 9 71 318 8 329 72 60 28 138 155 229 268 336 4 305 223 296 257 316 313 347 319 328 302 105 78 22 20 26 24
293 309 323 335 351 347 27 348 349 340 67 263 146 347 32 30 316 319 327 126 58 106 66 86 207 58 310 71 64 303 161 303 294 15 297 72 283 301 284 329 96 63 64 29 358
268 297 319 335 325 357 327 341 351 268 6 6 296 304 238 89 8 353 317 355 122 140 102 203 177 72 185 142 81 253 308 281 263 245 35 338 62 268 302 292 306 348 31 9 334
254 272 314 314 302 313 324 340 330 40 261 304 354 211 112 70 40 280 323 44 53 103 74 125 84 149 195 270 210 287 310 354 116 91 22 240 139 280 260 236 288 349 354 318 322
231 240 241 304 305 317 328 36 30 147 355 288 178 249 31 37 98 46 28 19 102 80 353 126 183 159 88 14 33 26 35 341 360 13 223 173 273 247 263 261 52 350 325 319 321
221 212 203 204 294 323 356 65 163 256 218 240 69 54 141 55 326 151 152 89 7 83 88 133 319 178 22 92 165 28 120 146 242 287 274 325 235 255 212 122 122 10 329 322 335
200 158 165 138 139 357 78 124 205 213 188 148 51 74 314 355 191 124 120 174 147 63 149 141 254 68 67 80 106 272 59 185 91 7 32 265 287 298 188 38 1 350 325 331 322
176 144 164 145 119 73 76 225 246 160 156 140 179 141 189 223 185 167 191 223 158 122 139 218 21 128 142 89 27 112 139 43 17 357 300 288 280 241 288 339 331 323 325 330 334
151 146 158 138 116 74 191 221 238 229 163 199 211 183 219 187 180 213 215 300 150 138 346 151 104 289 106 202 172 25 355 16 120 146 193 293 267 226 243 315 296 323 335 335 332
159 185 167 151 111 220 172 201 150 173 313 200 310 186 191 166 158 225 209 212 132 142 164 240 139 218 220 212 122 165 196 146 126 257 223 168 268 260 256 6 344 336 344 334 329
163 99 179 236 183 194 231 132 166 162 207 168 229 185 104 184 178 179 134 360 124 143 183 194 345 2 341 344 5 199 198 146 122 91 218 141 262 256 300 332 341 338 334 335 330
144 143 161 265 62 175 132 192 200 208 171 179 168 121 114 112 14 204 155 219 141 106 136 134 113 172 202 201 135 201 193 182 140 142 211 229 277 292 306 321 320 317 335 329 339
193 213 168 185 208 192 173 166 173 169 145 167 334 210 168 173 50 230 145 110 57 169 152 118 182 194 244 258 239 249 238 205 207 196 183 258 225 271 285 291 292 286 335 340 344
198 157 232 150 156 176 197 191 165 167 153 208 205 197 172 200 189 199 144 191 193 181 168 180 254 36 293 273 225 260 231 221 232 235 253 259 278 279 278 309 309 313 346 343 342
217 150 148 167 154 177 190 169 198 146 235 177 192 154 194 216 128 59 149 143 154 155 171 155 126 83 269 344 303 296 229 189 193 216 206 195 232 305 288 289 313 312 357 338 337